Time,TemperatureF,DewpointF,PressureIn,WindDirection,WindDirectionDegrees,WindSpeedMPH,WindSpeedGustMPH,Humidity,HourlyPrecipIn,Conditions,Clouds,dailyrainin,SoftwareType,DateUTC
2013-12-20 00:00:00,10.7,1.2,29.97,North,350,7.0,14.0,65,0.00,,,0.00,Wunderground v.1.13,2013-12-20 07:00:00,
2013-12-20 00:05:00,10.9,1.8,29.97,North,350,8.0,8.0,66,0.00,,,0.00,Wunderground v.1.13,2013-12-20 07:05:00,
2013-12-20 00:10:00,10.7,1.6,29.97,NNW,333,7.0,7.0,66,0.00,,,0.00,Wunderground v.1.13,2013-12-20 07:10:00,
2013-12-20 00:15:00,10.7,1.6,29.97,NNW,333,5.0,14.0,66,0.00,,,0.00,Wunderground v.1.13,2013-12-20 07:15:00,
2013-12-20 00:19:00,10.5,1.4,29.98,NW,326,5.0,14.0,66,0.00,,,0.00,Wunderground v.1.13,2013-12-20 07:19:00,
2013-12-20 00:25:00,10.4,1.3,29.98,NW,317,8.0,8.0,66,0.00,,,0.00,Wunderground v.1.13,2013-12-20 07:25:00,
2013-12-20 00:30:00,10.4,1.3,29.98,NW,321,7.0,14.0,66,0.00,,,0.00,Wunderground v.1.13,2013-12-20 07:30:00,
2013-12-20 00:35:00,10.4,1.3,29.98,NW,321,6.0,14.0,66,0.00,,,0.00,Wunderground v.1.13,2013-12-20 07:35:00,
2013-12-20 00:39:00,10.4,1.0,29.98,NW,310,8.0,14.0,65,0.00,,,0.00,Wunderground v.1.13,2013-12-20 07:39:00,
2013-12-20 00:45:00,10.4,1.3,29.98,NW,326,8.0,8.0,66,0.00,,,0.00,Wunderground v.1.13,2013-12-20 07:45:00,
2013-12-20 00:50:00,10.4,1.6,29.98,NW,315,7.0,7.0,67,0.00,,,0.00,Wunderground v.1.13,2013-12-20 07:50:00,
2013-12-20 00:55:00,10.2,1.1,29.98,NW,326,7.0,7.0,66,0.00,,,0.00,Wunderground v.1.13,2013-12-20 07:55:00,
2013-12-20 00:59:00,10.0,1.2,29.98,NNW,331,10.0,14.0,67,0.00,,,0.00,Wunderground v.1.13,2013-12-20 07:59:00,
2013-12-20 01:05:00,10.0,1.2,29.98,NW,317,10.0,10.0,67,0.00,,,0.00,Wunderground v.1.13,2013-12-20 08:05:00,
2013-12-20 01:15:00,9.7,0.9,29.98,NNW,336,8.0,8.0,67,0.00,,,0.00,Wunderground v.1.13,2013-12-20 08:15:00,
2013-12-20 01:20:00,9.5,1.1,29.98,North,351,6.0,6.0,68,0.00,,,0.00,Wunderground v.1.13,2013-12-20 08:20:00,
2013-12-20 01:25:00,9.5,1.1,29.98,WNW,300,6.0,14.0,68,0.00,,,0.00,Wunderground v.1.13,2013-12-20 08:25:00,
2013-12-20 01:30:00,9.5,1.1,29.98,NNW,337,5.0,5.0,68,0.00,,,0.00,Wunderground v.1.13,2013-12-20 08:30:00,
2013-12-20 01:35:00,9.3,0.9,29.98,NW,325,4.0,14.0,68,0.00,,,0.00,Wunderground v.1.13,2013-12-20 08:35:00,
2013-12-20 01:45:00,9.2,1.1,29.98,NW,323,5.0,5.0,69,0.00,,,0.00,Wunderground v.1.13,2013-12-20 08:45:00,
2013-12-20 01:49:00,9.2,1.1,29.98,NW,324,6.0,6.0,69,0.00,,,0.00,Wunderground v.1.13,2013-12-20 08:49:00,
2013-12-20 01:54:00,9.0,0.9,29.98,NNW,331,7.0,7.0,69,0.00,,,0.00,Wunderground v.1.13,2013-12-20 08:54:00,
2013-12-20 02:00:00,9.0,0.9,29.98,NW,317,5.0,14.0,69,0.00,,,0.00,Wunderground v.1.13,2013-12-20 09:00:00,
2013-12-20 02:05:00,9.0,0.9,29.98,NNW,331,5.0,14.0,69,0.00,,,0.00,Wunderground v.1.13,2013-12-20 09:05:00,
2013-12-20 02:10:00,8.8,0.7,29.98,NNW,336,5.0,5.0,69,0.00,,,0.00,Wunderground v.1.13,2013-12-20 09:10:00,
2013-12-20 02:15:00,8.8,0.4,29.98,NNW,340,5.0,5.0,68,0.00,,,0.00,Wunderground v.1.13,2013-12-20 09:15:00,
2013-12-20 02:19:00,8.8,0.4,30.00,NW,325,5.0,5.0,68,0.00,,,0.00,Wunderground v.1.13,2013-12-20 09:19:00,
2013-12-20 02:25:00,8.6,0.2,30.00,NNW,339,5.0,14.0,68,0.00,,,0.00,Wunderground v.1.13,2013-12-20 09:25:00,
2013-12-20 02:30:00,8.6,0.2,30.00,NW,325,6.0,14.0,68,0.00,,,0.00,Wunderground v.1.13,2013-12-20 09:30:00,
2013-12-20 02:34:00,8.6,0.2,30.00,NNW,344,6.0,6.0,68,0.00,,,0.00,Wunderground v.1.13,2013-12-20 09:34:00,
2013-12-20 02:39:00,8.6,0.2,30.00,NNW,340,5.0,5.0,68,0.00,,,0.00,Wunderground v.1.13,2013-12-20 09:39:00,
2013-12-20 02:45:00,8.4,0.3,30.00,North,360,4.0,14.0,69,0.00,,,0.00,Wunderground v.1.13,2013-12-20 09:45:00,
2013-12-20 02:50:00,8.4,0.3,30.00,NNW,345,5.0,5.0,69,0.00,,,0.00,Wunderground v.1.13,2013-12-20 09:50:00,
2013-12-20 03:00:00,8.4,0.0,30.00,NNE,16,6.0,14.0,68,0.00,,,0.00,Wunderground v.1.13,2013-12-20 10:00:00,
2013-12-20 03:04:00,8.6,0.2,30.00,NNW,336,6.0,6.0,68,0.00,,,0.00,Wunderground v.1.13,2013-12-20 10:04:00,
2013-12-20 03:09:00,8.6,0.2,30.00,NNE,20,7.0,7.0,68,0.00,,,0.00,Wunderground v.1.13,2013-12-20 10:09:00,
2013-12-20 03:14:00,8.6,0.2,30.00,NNW,343,8.0,8.0,68,0.00,,,0.00,Wunderground v.1.13,2013-12-20 10:14:00,
2013-12-20 03:20:00,8.6,0.2,29.99,NW,323,6.0,14.0,68,0.00,,,0.00,Wunderground v.1.13,2013-12-20 10:20:00,
2013-12-20 03:25:00,8.4,0.0,29.99,NNW,329,5.0,14.0,68,0.00,,,0.00,Wunderground v.1.13,2013-12-20 10:25:00,
2013-12-20 03:30:00,8.4,0.0,29.99,North,349,6.0,6.0,68,0.00,,,0.00,Wunderground v.1.13,2013-12-20 10:30:00,
2013-12-20 03:39:00,8.4,0.3,30.00,North,351,6.0,14.0,69,0.00,,,0.00,Wunderground v.1.13,2013-12-20 10:39:00,
2013-12-20 03:44:00,8.4,0.3,30.00,NNW,343,5.0,14.0,69,0.00,,,0.00,Wunderground v.1.13,2013-12-20 10:44:00,
2013-12-20 03:50:00,8.4,0.3,30.00,NW,323,4.0,14.0,69,0.00,,,0.00,Wunderground v.1.13,2013-12-20 10:50:00,
2013-12-20 03:55:00,8.6,0.5,30.00,NNW,338,3.0,14.0,69,0.00,,,0.00,Wunderground v.1.13,2013-12-20 10:55:00,
2013-12-20 04:00:00,8.6,0.5,30.00,NNW,333,2.0,2.0,69,0.00,,,0.00,Wunderground v.1.13,2013-12-20 11:00:00,
2013-12-20 04:04:00,8.8,0.7,29.99,North,351,3.0,14.0,69,0.00,,,0.00,Wunderground v.1.13,2013-12-20 11:04:00,
2013-12-20 04:10:00,8.8,0.7,29.99,North,360,5.0,5.0,69,0.00,,,0.00,Wunderground v.1.13,2013-12-20 11:10:00,
2013-12-20 04:15:00,8.8,0.7,29.99,NNW,335,3.0,3.0,69,0.00,,,0.00,Wunderground v.1.13,2013-12-20 11:15:00,
2013-12-20 04:19:00,9.0,0.9,30.00,NNW,338,2.0,14.0,69,0.00,,,0.00,Wunderground v.1.13,2013-12-20 11:19:00,
2013-12-20 04:24:00,9.2,1.1,30.00,NW,323,4.0,14.0,69,0.00,,,0.00,Wunderground v.1.13,2013-12-20 11:24:00,
2013-12-20 04:30:00,9.3,1.2,30.00,NNW,345,5.0,14.0,69,0.00,,,0.00,Wunderground v.1.13,2013-12-20 11:30:00,
2013-12-20 04:35:00,9.5,1.4,30.01,NNW,336,4.0,4.0,69,0.00,,,0.00,Wunderground v.1.13,2013-12-20 11:35:00,
2013-12-20 04:45:00,9.9,1.4,30.01,NW,320,4.0,4.0,68,0.00,,,0.00,Wunderground v.1.13,2013-12-20 11:45:00,
2013-12-20 04:49:00,10.0,1.5,30.01,NNW,338,2.0,14.0,68,0.00,,,0.00,Wunderground v.1.13,2013-12-20 11:49:00,
2013-12-20 04:55:00,10.0,1.5,30.01,NW,313,1.0,1.0,68,0.00,,,0.00,Wunderground v.1.13,2013-12-20 11:55:00,
2013-12-20 05:00:00,10.2,1.7,30.01,NNW,336,2.0,2.0,68,0.00,,,0.00,Wunderground v.1.13,2013-12-20 12:00:00,
2013-12-20 05:09:00,10.5,1.7,30.01,North,360,2.0,14.0,67,0.00,,,0.00,Wunderground v.1.13,2013-12-20 12:09:00,
2013-12-20 05:15:00,10.5,1.7,30.01,NNW,332,4.0,4.0,67,0.00,,,0.00,Wunderground v.1.13,2013-12-20 12:15:00,
2013-12-20 05:25:00,10.7,1.9,30.01,NNW,327,4.0,14.0,67,0.00,,,0.00,Wunderground v.1.13,2013-12-20 12:25:00,
2013-12-20 05:35:00,10.9,1.8,30.00,NNW,345,5.0,5.0,66,0.00,,,0.00,Wunderground v.1.13,2013-12-20 12:35:00,
2013-12-20 05:40:00,11.1,1.9,30.00,North,351,5.0,14.0,66,0.00,,,0.00,Wunderground v.1.13,2013-12-20 12:40:00,
2013-12-20 05:45:00,10.9,1.4,30.00,NNW,329,4.0,14.0,65,0.00,,,0.00,Wunderground v.1.13,2013-12-20 12:45:00,
2013-12-20 05:50:00,11.1,1.6,30.00,North,360,5.0,5.0,65,0.00,,,0.00,Wunderground v.1.13,2013-12-20 12:50:00,
2013-12-20 05:54:00,11.1,1.6,30.00,North,360,5.0,14.0,65,0.00,,,0.00,Wunderground v.1.13,2013-12-20 12:54:00,
2013-12-20 06:00:00,11.1,1.9,30.00,North,350,3.0,14.0,66,0.00,,,0.00,Wunderground v.1.13,2013-12-20 13:00:00,
2013-12-20 06:05:00,10.9,1.4,29.99,North,351,4.0,4.0,65,0.00,,,0.00,Wunderground v.1.13,2013-12-20 13:05:00,
2013-12-20 06:10:00,10.9,1.8,29.99,NNW,328,5.0,14.0,66,0.00,,,0.00,Wunderground v.1.13,2013-12-20 13:10:00,
2013-12-20 06:15:00,10.7,1.6,29.99,NNW,336,4.0,4.0,66,0.00,,,0.00,Wunderground v.1.13,2013-12-20 13:15:00,
2013-12-20 06:19:00,10.7,1.6,29.99,NW,325,3.0,14.0,66,0.00,,,0.00,Wunderground v.1.13,2013-12-20 13:19:00,
2013-12-20 06:25:00,10.5,1.4,29.99,NW,314,3.0,14.0,66,0.00,,,0.00,Wunderground v.1.13,2013-12-20 13:25:00,
2013-12-20 06:30:00,10.5,1.7,29.99,NW,317,2.0,2.0,67,0.00,,,0.00,Wunderground v.1.13,2013-12-20 13:30:00,
2013-12-20 06:35:00,10.5,1.7,30.00,NNW,329,1.0,14.0,67,0.00,,,0.00,Wunderground v.1.13,2013-12-20 13:35:00,
2013-12-20 06:40:00,10.5,1.4,30.00,NW,317,1.0,1.0,66,0.00,,,0.00,Wunderground v.1.13,2013-12-20 13:40:00,
2013-12-20 06:49:00,10.2,1.4,30.00,NW,317,0.0,14.0,67,0.00,,,0.00,Wunderground v.1.13,2013-12-20 13:49:00,
2013-12-20 06:55:00,10.2,1.4,30.00,NW,317,0.0,14.0,67,0.00,,,0.00,Wunderground v.1.13,2013-12-20 13:55:00,
2013-12-20 07:00:00,10.0,1.2,30.00,NW,318,0.0,14.0,67,0.00,,,0.00,Wunderground v.1.13,2013-12-20 14:00:00,
2013-12-20 07:05:00,9.9,1.1,29.98,NW,319,1.0,1.0,67,0.00,,,0.00,Wunderground v.1.13,2013-12-20 14:05:00,
2013-12-20 07:10:00,9.9,1.4,29.98,NW,319,2.0,14.0,68,0.00,,,0.00,Wunderground v.1.13,2013-12-20 14:10:00,
2013-12-20 07:14:00,9.9,1.8,29.98,NNW,331,2.0,14.0,69,0.00,,,0.00,Wunderground v.1.13,2013-12-20 14:14:00,
2013-12-20 07:19:00,9.9,1.4,29.98,NW,323,2.0,2.0,68,0.00,,,0.00,Wunderground v.1.13,2013-12-20 14:19:00,
2013-12-20 07:24:00,9.9,1.4,29.98,NW,323,1.0,1.0,68,0.00,,,0.00,Wunderground v.1.13,2013-12-20 14:24:00,
2013-12-20 07:30:00,9.9,1.8,29.98,NW,323,0.0,14.0,69,0.00,,,0.00,Wunderground v.1.13,2013-12-20 14:30:00,
2013-12-20 07:35:00,10.0,1.9,29.98,NW,323,0.0,14.0,69,0.00,,,0.00,Wunderground v.1.13,2013-12-20 14:35:00,
2013-12-20 07:40:00,10.2,2.0,29.98,NNW,327,1.0,1.0,69,0.00,,,0.00,Wunderground v.1.13,2013-12-20 14:40:00,
2013-12-20 07:45:00,10.5,2.3,29.98,NNW,327,1.0,1.0,69,0.00,,,0.00,Wunderground v.1.13,2013-12-20 14:45:00,
2013-12-20 07:49:00,10.7,2.5,29.98,NW,321,1.0,1.0,69,0.00,,,0.00,Wunderground v.1.13,2013-12-20 14:49:00,
2013-12-20 07:55:00,10.7,2.2,29.98,NW,321,1.0,1.0,68,0.00,,,0.00,Wunderground v.1.13,2013-12-20 14:55:00,
2013-12-20 08:00:00,10.9,2.4,29.98,NW,321,0.0,14.0,68,0.00,,,0.00,Wunderground v.1.13,2013-12-20 15:00:00,
2013-12-20 08:05:00,11.2,2.7,29.98,NW,321,0.0,14.0,68,0.00,,,0.00,Wunderground v.1.13,2013-12-20 15:05:00,
2013-12-20 08:10:00,11.2,2.7,29.98,NW,319,0.0,14.0,68,0.00,,,0.00,Wunderground v.1.13,2013-12-20 15:10:00,
2013-12-20 08:14:00,11.4,2.6,29.98,NW,319,0.0,14.0,67,0.00,,,0.00,Wunderground v.1.13,2013-12-20 15:14:00,
2013-12-20 08:19:00,11.4,2.6,29.98,NW,318,0.0,14.0,67,0.00,,,0.00,Wunderground v.1.13,2013-12-20 15:19:00,
2013-12-20 08:24:00,11.6,2.8,29.98,NW,318,0.0,14.0,67,0.00,,,0.00,Wunderground v.1.13,2013-12-20 15:24:00,
2013-12-20 08:30:00,12.1,3.2,29.98,NW,321,0.0,14.0,67,0.00,,,0.00,Wunderground v.1.13,2013-12-20 15:30:00,
2013-12-20 08:35:00,12.4,3.5,29.97,NNW,327,0.0,14.0,67,0.00,,,0.00,Wunderground v.1.13,2013-12-20 15:35:00,
2013-12-20 08:45:00,13.1,3.5,29.98,NW,304,0.0,14.0,65,0.00,,,0.00,Wunderground v.1.13,2013-12-20 15:45:00,
2013-12-20 08:50:00,13.3,3.7,29.98,WNW,293,0.0,14.0,65,0.00,,,0.00,Wunderground v.1.13,2013-12-20 15:50:00,
2013-12-20 08:55:00,13.5,3.9,29.98,WNW,285,2.0,14.0,65,0.00,,,0.00,Wunderground v.1.13,2013-12-20 15:55:00,
2013-12-20 09:00:00,13.6,3.7,29.98,WNW,302,3.0,14.0,64,0.00,,,0.00,Wunderground v.1.13,2013-12-20 16:00:00,
2013-12-20 09:09:00,13.6,3.7,29.99,NNW,331,3.0,14.0,64,0.00,,,0.00,Wunderground v.1.13,2013-12-20 16:09:00,
2013-12-20 09:14:00,13.8,3.9,29.99,NNW,338,3.0,3.0,64,0.00,,,0.00,Wunderground v.1.13,2013-12-20 16:14:00,
2013-12-20 09:20:00,13.8,3.5,29.99,NNW,327,2.0,2.0,63,0.00,,,0.00,Wunderground v.1.13,2013-12-20 16:20:00,
2013-12-20 09:25:00,13.5,3.2,29.99,NNW,327,0.0,14.0,63,0.00,,,0.00,Wunderground v.1.13,2013-12-20 16:25:00,
2013-12-20 09:30:00,13.5,3.6,29.99,NNW,327,0.0,14.0,64,0.00,,,0.00,Wunderground v.1.13,2013-12-20 16:30:00,
2013-12-20 09:35:00,13.5,3.6,29.99,NW,325,0.0,14.0,64,0.00,,,0.00,Wunderground v.1.13,2013-12-20 16:35:00,
2013-12-20 09:45:00,13.6,3.3,29.99,NW,305,0.0,14.0,63,0.00,,,0.00,Wunderground v.1.13,2013-12-20 16:45:00,
2013-12-20 09:49:00,14.0,3.7,29.99,NW,305,0.0,14.0,63,0.00,,,0.00,Wunderground v.1.13,2013-12-20 16:49:00,
2013-12-20 09:55:00,14.1,3.8,29.99,WNW,294,0.0,14.0,63,0.00,,,0.00,Wunderground v.1.13,2013-12-20 16:55:00,
2013-12-20 10:00:00,14.1,3.5,29.98,NW,312,0.0,14.0,62,0.00,,,0.00,Wunderground v.1.13,2013-12-20 17:00:00,
2013-12-20 10:05:00,14.3,3.6,29.98,WNW,285,0.0,14.0,62,0.00,,,0.00,Wunderground v.1.13,2013-12-20 17:05:00,
2013-12-20 10:10:00,14.6,3.6,29.98,NW,312,0.0,14.0,61,0.00,,,0.00,Wunderground v.1.13,2013-12-20 17:10:00,
2013-12-20 10:20:00,14.9,3.5,29.97,NW,313,0.0,14.0,60,0.00,,,0.00,Wunderground v.1.13,2013-12-20 17:20:00,
2013-12-20 10:25:00,15.1,3.7,29.97,NW,313,0.0,14.0,60,0.00,,,0.00,Wunderground v.1.13,2013-12-20 17:25:00,
2013-12-20 10:29:00,15.2,3.8,29.97,NW,312,0.0,14.0,60,0.00,,,0.00,Wunderground v.1.13,2013-12-20 17:29:00,
2013-12-20 10:35:00,15.4,4.0,29.97,NW,312,0.0,14.0,60,0.00,,,0.00,Wunderground v.1.13,2013-12-20 17:35:00,
2013-12-20 10:40:00,15.6,3.8,29.97,NW,312,0.0,14.0,59,0.00,,,0.00,Wunderground v.1.13,2013-12-20 17:40:00,
2013-12-20 10:45:00,16.1,4.3,29.97,NW,304,0.0,14.0,59,0.00,,,0.00,Wunderground v.1.13,2013-12-20 17:45:00,
2013-12-20 10:50:00,16.1,3.9,29.98,NW,304,0.0,14.0,58,0.00,,,0.00,Wunderground v.1.13,2013-12-20 17:50:00,
2013-12-20 10:54:00,16.4,3.8,29.98,WSW,242,0.0,14.0,57,0.00,,,0.00,Wunderground v.1.13,2013-12-20 17:54:00,
2013-12-20 10:59:00,16.2,3.6,29.98,WSW,243,0.0,14.0,57,0.00,,,0.00,Wunderground v.1.13,2013-12-20 17:59:00,
2013-12-20 11:05:00,16.4,3.4,29.97,WSW,246,1.0,14.0,56,0.00,,,0.00,Wunderground v.1.13,2013-12-20 18:05:00,
2013-12-20 11:10:00,16.4,3.4,29.97,West,261,1.0,1.0,56,0.00,,,0.00,Wunderground v.1.13,2013-12-20 18:10:00,
2013-12-20 11:15:00,16.7,3.7,29.97,SSW,211,1.0,1.0,56,0.00,,,0.00,Wunderground v.1.13,2013-12-20 18:15:00,
2013-12-20 11:20:00,16.9,3.5,29.95,SW,230,1.0,14.0,55,0.00,,,0.00,Wunderground v.1.13,2013-12-20 18:20:00,
2013-12-20 11:25:00,16.7,3.3,29.95,SW,231,2.0,2.0,55,0.00,,,0.00,Wunderground v.1.13,2013-12-20 18:25:00,
2013-12-20 11:34:00,17.0,3.6,29.95,SSW,211,2.0,2.0,55,0.00,,,0.00,Wunderground v.1.13,2013-12-20 18:34:00,
2013-12-20 11:39:00,17.3,3.5,29.95,WSW,242,3.0,14.0,54,0.00,,,0.00,Wunderground v.1.13,2013-12-20 18:39:00,
2013-12-20 11:44:00,17.3,3.5,29.95,WSW,242,3.0,14.0,54,0.00,,,0.00,Wunderground v.1.13,2013-12-20 18:44:00,
2013-12-20 11:50:00,17.3,3.5,29.94,WSW,253,3.0,3.0,54,0.00,,,0.00,Wunderground v.1.13,2013-12-20 18:50:00,
2013-12-20 11:55:00,17.3,3.5,29.94,SW,232,3.0,3.0,54,0.00,,,0.00,Wunderground v.1.13,2013-12-20 18:55:00,
2013-12-20 12:00:00,17.8,3.5,29.94,WSW,240,2.0,14.0,53,0.00,,,0.00,Wunderground v.1.13,2013-12-20 19:00:00,
2013-12-20 12:05:00,18.0,3.7,29.93,SW,223,3.0,3.0,53,0.00,,,0.00,Wunderground v.1.13,2013-12-20 19:05:00,
2013-12-20 12:10:00,18.3,4.0,29.93,South,187,2.0,14.0,53,0.00,,,0.00,Wunderground v.1.13,2013-12-20 19:10:00,
2013-12-20 12:15:00,18.4,3.7,29.93,West,268,1.0,1.0,52,0.00,,,0.00,Wunderground v.1.13,2013-12-20 19:15:00,
2013-12-20 12:20:00,18.8,4.1,29.91,West,263,1.0,1.0,52,0.00,,,0.00,Wunderground v.1.13,2013-12-20 19:20:00,
2013-12-20 12:24:00,18.9,4.1,29.91,West,274,0.0,14.0,52,0.00,,,0.00,Wunderground v.1.13,2013-12-20 19:24:00,
2013-12-20 12:29:00,19.4,4.2,29.91,West,277,0.0,14.0,51,0.00,,,0.00,Wunderground v.1.13,2013-12-20 19:29:00,
2013-12-20 12:35:00,20.0,4.3,29.90,WSW,238,0.0,14.0,50,0.00,,,0.00,Wunderground v.1.13,2013-12-20 19:35:00,
2013-12-20 12:40:00,20.8,4.6,29.90,SW,223,0.0,14.0,49,0.00,,,0.00,Wunderground v.1.13,2013-12-20 19:40:00,
2013-12-20 12:45:00,21.1,4.9,29.90,West,262,0.0,14.0,49,0.00,,,0.00,Wunderground v.1.13,2013-12-20 19:45:00,
2013-12-20 12:50:00,21.4,4.7,29.89,West,259,0.0,14.0,48,0.00,,,0.00,Wunderground v.1.13,2013-12-20 19:50:00,
2013-12-20 12:59:00,21.8,5.1,29.89,WNW,294,1.0,1.0,48,0.00,,,0.00,Wunderground v.1.13,2013-12-20 19:59:00,
2013-12-20 13:04:00,21.9,5.2,29.89,WSW,242,1.0,1.0,48,0.00,,,0.00,Wunderground v.1.13,2013-12-20 20:04:00,
2013-12-20 13:10:00,22.1,5.4,29.89,SW,225,1.0,1.0,48,0.00,,,0.00,Wunderground v.1.13,2013-12-20 20:10:00,
2013-12-20 13:15:00,22.4,5.6,29.89,SW,216,2.0,14.0,48,0.00,,,0.00,Wunderground v.1.13,2013-12-20 20:15:00,
2013-12-20 13:20:00,22.1,5.4,29.87,WSW,248,2.0,2.0,48,0.00,,,0.00,Wunderground v.1.13,2013-12-20 20:20:00,
2013-12-20 13:25:00,22.4,5.6,29.87,SW,224,2.0,2.0,48,0.00,,,0.00,Wunderground v.1.13,2013-12-20 20:25:00,
2013-12-20 13:30:00,22.4,5.6,29.87,SSW,207,2.0,2.0,48,0.00,,,0.00,Wunderground v.1.13,2013-12-20 20:30:00,
2013-12-20 13:34:00,22.7,5.9,29.88,SW,222,2.0,14.0,48,0.00,,,0.00,Wunderground v.1.13,2013-12-20 20:34:00,
2013-12-20 13:40:00,23.0,6.2,29.88,SW,218,2.0,14.0,48,0.00,,,0.00,Wunderground v.1.13,2013-12-20 20:40:00,
2013-12-20 13:44:00,23.3,6.0,29.88,WSW,250,3.0,14.0,47,0.00,,,0.00,Wunderground v.1.13,2013-12-20 20:44:00,
2013-12-20 13:50:00,23.5,6.2,29.88,SW,229,3.0,14.0,47,0.00,,,0.00,Wunderground v.1.13,2013-12-20 20:50:00,
2013-12-20 13:55:00,23.6,6.3,29.88,WSW,249,3.0,3.0,47,0.00,,,0.00,Wunderground v.1.13,2013-12-20 20:55:00,
2013-12-20 14:00:00,23.6,6.8,29.88,WSW,253,4.0,4.0,48,0.00,,,0.00,Wunderground v.1.13,2013-12-20 21:00:00,
2013-12-20 14:05:00,23.6,6.8,29.87,West,278,4.0,14.0,48,0.00,,,0.00,Wunderground v.1.13,2013-12-20 21:05:00,
2013-12-20 14:09:00,23.5,7.1,29.87,West,259,3.0,3.0,49,0.00,,,0.00,Wunderground v.1.13,2013-12-20 21:09:00,
2013-12-20 14:14:00,23.3,6.9,29.87,SW,222,2.0,2.0,49,0.00,,,0.00,Wunderground v.1.13,2013-12-20 21:14:00,
2013-12-20 14:19:00,23.6,7.2,29.86,WSW,240,1.0,1.0,49,0.00,,,0.00,Wunderground v.1.13,2013-12-20 21:19:00,
2013-12-20 14:24:00,23.8,7.8,29.86,West,273,1.0,1.0,50,0.00,,,0.00,Wunderground v.1.13,2013-12-20 21:24:00,
2013-12-20 14:30:00,24.1,8.1,29.86,NW,320,1.0,14.0,50,0.00,,,0.00,Wunderground v.1.13,2013-12-20 21:30:00,
2013-12-20 14:35:00,24.2,7.8,29.86,West,278,0.0,14.0,49,0.00,,,0.00,Wunderground v.1.13,2013-12-20 21:35:00,
2013-12-20 14:40:00,24.2,7.8,29.86,WNW,284,1.0,1.0,49,0.00,,,0.00,Wunderground v.1.13,2013-12-20 21:40:00,
2013-12-20 14:45:00,24.5,8.0,29.86,West,260,1.0,1.0,49,0.00,,,0.00,Wunderground v.1.13,2013-12-20 21:45:00,
2013-12-20 14:50:00,24.7,7.8,29.86,WNW,296,0.0,14.0,48,0.00,,,0.00,Wunderground v.1.13,2013-12-20 21:50:00,
2013-12-20 14:54:00,24.7,7.8,29.86,SW,226,0.0,14.0,48,0.00,,,0.00,Wunderground v.1.13,2013-12-20 21:54:00,
2013-12-20 15:00:00,25.1,7.7,29.86,SW,225,1.0,14.0,47,0.00,,,0.00,Wunderground v.1.13,2013-12-20 22:00:00,
2013-12-20 15:05:00,25.3,8.3,29.85,WNW,282,1.0,1.0,48,0.00,,,0.00,Wunderground v.1.13,2013-12-20 22:05:00,
2013-12-20 15:10:00,25.3,7.9,29.85,WSW,256,1.0,14.0,47,0.00,,,0.00,Wunderground v.1.13,2013-12-20 22:10:00,
2013-12-20 15:15:00,24.8,7.9,29.85,WSW,255,1.0,1.0,48,0.00,,,0.00,Wunderground v.1.13,2013-12-20 22:15:00,
2013-12-20 15:20:00,24.7,7.8,29.85,West,272,0.0,14.0,48,0.00,,,0.00,Wunderground v.1.13,2013-12-20 22:20:00,
2013-12-20 15:25:00,24.7,8.2,29.85,West,273,0.0,14.0,49,0.00,,,0.00,Wunderground v.1.13,2013-12-20 22:25:00,
2013-12-20 15:34:00,24.4,7.9,29.86,WSW,240,0.0,14.0,49,0.00,,,0.00,Wunderground v.1.13,2013-12-20 22:34:00,
2013-12-20 15:40:00,24.2,8.2,29.86,SW,227,0.0,14.0,50,0.00,,,0.00,Wunderground v.1.13,2013-12-20 22:40:00,
2013-12-20 15:49:00,24.4,8.4,29.85,SW,230,0.0,14.0,50,0.00,,,0.00,Wunderground v.1.13,2013-12-20 22:49:00,
2013-12-20 15:54:00,24.4,8.4,29.85,SW,228,0.0,14.0,50,0.00,,,0.00,Wunderground v.1.13,2013-12-20 22:54:00,
2013-12-20 16:00:00,24.2,8.2,29.85,WSW,238,0.0,14.0,50,0.00,,,0.00,Wunderground v.1.13,2013-12-20 23:00:00,
2013-12-20 16:05:00,24.1,8.6,29.85,WSW,237,0.0,14.0,51,0.00,,,0.00,Wunderground v.1.13,2013-12-20 23:05:00,
2013-12-20 16:10:00,23.9,8.4,29.85,WSW,237,0.0,14.0,51,0.00,,,0.00,Wunderground v.1.13,2013-12-20 23:10:00,
2013-12-20 16:15:00,23.8,8.3,29.85,WSW,237,0.0,14.0,51,0.00,,,0.00,Wunderground v.1.13,2013-12-20 23:15:00,
2013-12-20 16:19:00,23.6,8.1,29.84,WSW,237,0.0,14.0,51,0.00,,,0.00,Wunderground v.1.13,2013-12-20 23:19:00,
2013-12-20 16:24:00,23.5,8.4,29.84,WSW,237,0.0,14.0,52,0.00,,,0.00,Wunderground v.1.13,2013-12-20 23:24:00,
2013-12-20 16:34:00,23.0,8.0,29.84,WSW,237,0.0,14.0,52,0.00,,,0.00,Wunderground v.1.13,2013-12-20 23:34:00,
2013-12-20 16:40:00,22.7,8.1,29.84,WSW,237,0.0,14.0,53,0.00,,,0.00,Wunderground v.1.13,2013-12-20 23:40:00,
2013-12-20 16:45:00,22.4,7.8,29.84,WSW,237,0.0,14.0,53,0.00,,,0.00,Wunderground v.1.13,2013-12-20 23:45:00,
2013-12-20 16:49:00,21.8,7.3,29.84,WSW,237,0.0,14.0,53,0.00,,,0.00,Wunderground v.1.13,2013-12-20 23:49:00,
2013-12-20 16:54:00,21.0,6.9,29.84,WSW,237,0.0,14.0,54,0.00,,,0.00,Wunderground v.1.13,2013-12-20 23:54:00,
2013-12-20 16:59:00,20.2,6.6,29.84,WSW,237,0.0,14.0,55,0.00,,,0.00,Wunderground v.1.13,2013-12-20 23:59:00,
2013-12-20 17:05:00,19.5,5.9,29.84,WSW,237,0.0,14.0,55,0.00,,,0.00,Wunderground v.1.13,2013-12-21 00:05:00,
2013-12-20 17:10:00,19.1,6.3,29.84,WSW,237,0.0,14.0,57,0.00,,,0.00,Wunderground v.1.13,2013-12-21 00:10:00,
2013-12-20 17:15:00,18.6,5.9,29.84,WSW,237,0.0,14.0,57,0.00,,,0.00,Wunderground v.1.13,2013-12-21 00:15:00,
2013-12-20 17:19:00,18.3,5.6,29.84,WSW,237,0.0,14.0,57,0.00,,,0.00,Wunderground v.1.13,2013-12-21 00:19:00,
2013-12-20 17:25:00,18.0,6.1,29.84,WSW,237,0.0,14.0,59,0.00,,,0.00,Wunderground v.1.13,2013-12-21 00:25:00,
2013-12-20 17:30:00,17.8,5.9,29.84,WSW,237,0.0,14.0,59,0.00,,,0.00,Wunderground v.1.13,2013-12-21 00:30:00,
2013-12-20 17:35:00,18.0,6.4,29.83,WSW,237,0.0,14.0,60,0.00,,,0.00,Wunderground v.1.13,2013-12-21 00:35:00,
2013-12-20 17:40:00,17.8,6.2,29.83,WSW,237,0.0,14.0,60,0.00,,,0.00,Wunderground v.1.13,2013-12-21 00:40:00,
2013-12-20 17:44:00,17.8,6.6,29.83,WSW,237,0.0,14.0,61,0.00,,,0.00,Wunderground v.1.13,2013-12-21 00:44:00,
2013-12-20 17:49:00,17.7,6.5,29.83,WSW,237,0.0,14.0,61,0.00,,,0.00,Wunderground v.1.13,2013-12-21 00:49:00,
2013-12-20 17:55:00,17.7,6.5,29.83,WSW,237,0.0,14.0,61,0.00,,,0.00,Wunderground v.1.13,2013-12-21 00:55:00,
2013-12-20 18:00:00,17.3,6.5,29.83,WSW,237,0.0,14.0,62,0.00,,,0.00,Wunderground v.1.13,2013-12-21 01:00:00,
2013-12-20 18:05:00,17.2,6.4,29.84,WSW,237,0.0,14.0,62,0.00,,,0.00,Wunderground v.1.13,2013-12-21 01:05:00,
2013-12-20 18:10:00,17.0,6.6,29.84,WSW,237,0.0,14.0,63,0.00,,,0.00,Wunderground v.1.13,2013-12-21 01:10:00,
2013-12-20 18:15:00,17.2,6.8,29.84,WSW,237,0.0,14.0,63,0.00,,,0.00,Wunderground v.1.13,2013-12-21 01:15:00,
2013-12-20 18:20:00,17.3,7.2,29.85,WSW,237,0.0,14.0,64,0.00,,,0.00,Wunderground v.1.13,2013-12-21 01:20:00,
2013-12-20 18:25:00,17.5,7.4,29.85,WSW,237,0.0,14.0,64,0.00,,,0.00,Wunderground v.1.13,2013-12-21 01:25:00,
2013-12-20 18:30:00,17.7,7.6,29.85,WSW,237,0.0,14.0,64,0.00,,,0.00,Wunderground v.1.13,2013-12-21 01:30:00,
2013-12-20 18:34:00,17.8,7.3,29.85,WSW,237,0.0,14.0,63,0.00,,,0.00,Wunderground v.1.13,2013-12-21 01:34:00,
2013-12-20 18:39:00,18.3,7.8,29.85,WSW,237,0.0,14.0,63,0.00,,,0.00,Wunderground v.1.13,2013-12-21 01:39:00,
2013-12-20 18:50:00,19.7,8.4,29.85,SW,218,0.0,14.0,61,0.00,,,0.00,Wunderground v.1.13,2013-12-21 01:50:00,
2013-12-20 18:55:00,20.2,8.5,29.85,SW,218,0.0,14.0,60,0.00,,,0.00,Wunderground v.1.13,2013-12-21 01:55:00,
2013-12-20 19:00:00,20.3,8.2,29.85,SW,214,0.0,14.0,59,0.00,,,0.00,Wunderground v.1.13,2013-12-21 02:00:00,
2013-12-20 19:05:00,20.5,8.0,29.85,South,169,0.0,14.0,58,0.00,,,0.00,Wunderground v.1.13,2013-12-21 02:05:00,
2013-12-20 19:10:00,20.6,8.1,29.85,South,169,0.0,14.0,58,0.00,,,0.00,Wunderground v.1.13,2013-12-21 02:10:00,
2013-12-20 19:14:00,20.6,8.1,29.85,South,169,0.0,14.0,58,0.00,,,0.00,Wunderground v.1.13,2013-12-21 02:14:00,
2013-12-20 19:19:00,20.6,7.8,29.85,South,169,0.0,14.0,57,0.00,,,0.00,Wunderground v.1.13,2013-12-21 02:19:00,
2013-12-20 19:25:00,20.6,7.8,29.85,South,169,0.0,14.0,57,0.00,,,0.00,Wunderground v.1.13,2013-12-21 02:25:00,
2013-12-20 19:30:00,20.5,7.7,29.85,South,169,0.0,14.0,57,0.00,,,0.00,Wunderground v.1.13,2013-12-21 02:30:00,
2013-12-20 19:35:00,20.3,7.9,29.85,South,169,0.0,14.0,58,0.00,,,0.00,Wunderground v.1.13,2013-12-21 02:35:00,
2013-12-20 19:39:00,20.2,7.8,29.85,South,169,0.0,14.0,58,0.00,,,0.00,Wunderground v.1.13,2013-12-21 02:39:00,
2013-12-20 19:44:00,20.2,7.8,29.85,South,170,0.0,14.0,58,0.00,,,0.00,Wunderground v.1.13,2013-12-21 02:44:00,
2013-12-20 19:49:00,19.9,7.9,29.85,South,170,0.0,14.0,59,0.00,,,0.00,Wunderground v.1.13,2013-12-21 02:49:00,
2013-12-20 19:55:00,19.5,7.5,29.85,South,170,0.0,14.0,59,0.00,,,0.00,Wunderground v.1.13,2013-12-21 02:55:00,
2013-12-20 20:00:00,19.4,7.8,29.85,South,170,0.0,14.0,60,0.00,,,0.00,Wunderground v.1.13,2013-12-21 03:00:00,
2013-12-20 20:05:00,19.2,7.6,29.85,South,170,0.0,14.0,60,0.00,,,0.00,Wunderground v.1.13,2013-12-21 03:05:00,
2013-12-20 20:10:00,19.2,7.6,29.85,South,170,0.0,14.0,60,0.00,,,0.00,Wunderground v.1.13,2013-12-21 03:10:00,
2013-12-20 20:15:00,19.1,7.5,29.85,South,170,0.0,14.0,60,0.00,,,0.00,Wunderground v.1.13,2013-12-21 03:15:00,
2013-12-20 20:20:00,18.6,7.0,29.84,South,170,0.0,14.0,60,0.00,,,0.00,Wunderground v.1.13,2013-12-21 03:20:00,
2013-12-20 20:25:00,18.3,7.1,29.84,South,170,0.0,14.0,61,0.00,,,0.00,Wunderground v.1.13,2013-12-21 03:25:00,
2013-12-20 20:30:00,18.0,6.8,29.84,South,170,0.0,14.0,61,0.00,,,0.00,Wunderground v.1.13,2013-12-21 03:30:00,
2013-12-20 20:35:00,17.2,6.4,29.85,South,170,0.0,14.0,62,0.00,,,0.00,Wunderground v.1.13,2013-12-21 03:35:00,
2013-12-20 20:40:00,16.5,6.1,29.85,South,170,0.0,14.0,63,0.00,,,0.00,Wunderground v.1.13,2013-12-21 03:40:00,
2013-12-20 20:45:00,16.4,6.3,29.85,South,170,0.0,14.0,64,0.00,,,0.00,Wunderground v.1.13,2013-12-21 03:45:00,
2013-12-20 20:49:00,16.5,6.8,29.85,South,170,0.0,14.0,65,0.00,,,0.00,Wunderground v.1.13,2013-12-21 03:49:00,
2013-12-20 20:59:00,17.0,7.3,29.85,South,170,0.0,14.0,65,0.00,,,0.00,Wunderground v.1.13,2013-12-21 03:59:00,
2013-12-20 21:05:00,17.5,7.7,29.85,SSW,192,0.0,14.0,65,0.00,,,0.00,Wunderground v.1.13,2013-12-21 04:05:00,
2013-12-20 21:10:00,17.8,7.7,29.85,SSW,196,0.0,14.0,64,0.00,,,0.00,Wunderground v.1.13,2013-12-21 04:10:00,
2013-12-20 21:15:00,17.8,7.3,29.85,SSW,198,0.0,14.0,63,0.00,,,0.00,Wunderground v.1.13,2013-12-21 04:15:00,
2013-12-20 21:20:00,17.8,7.3,29.85,WSW,247,0.0,14.0,63,0.00,,,0.00,Wunderground v.1.13,2013-12-21 04:20:00,
2013-12-20 21:25:00,17.8,7.3,29.85,WSW,247,0.0,14.0,63,0.00,,,0.00,Wunderground v.1.13,2013-12-21 04:25:00,
2013-12-20 21:29:00,17.8,7.7,29.85,WSW,238,0.0,14.0,64,0.00,,,0.00,Wunderground v.1.13,2013-12-21 04:29:00,
2013-12-20 21:35:00,18.0,7.9,29.84,WSW,240,1.0,1.0,64,0.00,,,0.00,Wunderground v.1.13,2013-12-21 04:35:00,
2013-12-20 21:39:00,18.1,8.0,29.84,WSW,240,0.0,14.0,64,0.00,,,0.00,Wunderground v.1.13,2013-12-21 04:39:00,
2013-12-20 21:44:00,18.1,8.0,29.84,WSW,246,0.0,14.0,64,0.00,,,0.00,Wunderground v.1.13,2013-12-21 04:44:00,
2013-12-20 21:50:00,18.1,8.0,29.83,WSW,257,0.0,14.0,64,0.00,,,0.00,Wunderground v.1.13,2013-12-21 04:50:00,
2013-12-20 21:55:00,18.0,7.9,29.83,West,261,0.0,14.0,64,0.00,,,0.00,Wunderground v.1.13,2013-12-21 04:55:00,
2013-12-20 22:00:00,17.8,7.7,29.83,West,265,0.0,14.0,64,0.00,,,0.00,Wunderground v.1.13,2013-12-21 05:00:00,
2013-12-20 22:05:00,17.8,7.7,29.82,West,270,0.0,14.0,64,0.00,,,0.00,Wunderground v.1.13,2013-12-21 05:05:00,
2013-12-20 22:09:00,17.8,7.7,29.82,West,269,0.0,14.0,64,0.00,,,0.00,Wunderground v.1.13,2013-12-21 05:09:00,
2013-12-20 22:14:00,17.8,8.0,29.82,West,271,0.0,14.0,65,0.00,,,0.00,Wunderground v.1.13,2013-12-21 05:14:00,
2013-12-20 22:20:00,17.7,7.9,29.82,West,271,0.0,14.0,65,0.00,,,0.00,Wunderground v.1.13,2013-12-21 05:20:00,
2013-12-20 22:30:00,17.3,7.9,29.82,West,271,0.0,14.0,66,0.00,,,0.00,Wunderground v.1.13,2013-12-21 05:30:00,
2013-12-20 22:35:00,17.3,7.9,29.81,West,273,0.0,14.0,66,0.00,,,0.00,Wunderground v.1.13,2013-12-21 05:35:00,
2013-12-20 22:39:00,17.2,7.8,29.81,West,272,0.0,14.0,66,0.00,,,0.00,Wunderground v.1.13,2013-12-21 05:39:00,
2013-12-20 22:44:00,17.0,7.9,29.81,West,273,0.0,14.0,67,0.00,,,0.00,Wunderground v.1.13,2013-12-21 05:44:00,
2013-12-20 22:49:00,16.9,7.8,29.80,West,272,0.0,14.0,67,0.00,,,0.00,Wunderground v.1.13,2013-12-21 05:49:00,
2013-12-20 22:55:00,16.5,7.4,29.80,West,272,0.0,14.0,67,0.00,,,0.00,Wunderground v.1.13,2013-12-21 05:55:00,
2013-12-20 23:00:00,16.4,7.3,29.80,West,272,0.0,14.0,67,0.00,,,0.00,Wunderground v.1.13,2013-12-21 06:00:00,
2013-12-20 23:05:00,16.1,7.4,29.81,West,272,0.0,14.0,68,0.00,,,0.00,Wunderground v.1.13,2013-12-21 06:05:00,
2013-12-20 23:10:00,15.9,7.2,29.81,West,272,0.0,14.0,68,0.00,,,0.00,Wunderground v.1.13,2013-12-21 06:10:00,
2013-12-20 23:15:00,15.4,6.4,29.81,West,272,0.0,14.0,67,0.00,,,0.00,Wunderground v.1.13,2013-12-21 06:15:00,
2013-12-20 23:20:00,14.8,6.1,29.79,West,272,0.0,14.0,68,0.00,,,0.00,Wunderground v.1.13,2013-12-21 06:20:00,
2013-12-20 23:25:00,14.4,6.1,29.79,West,272,0.0,14.0,69,0.00,,,0.00,Wunderground v.1.13,2013-12-21 06:25:00,
2013-12-20 23:29:00,14.3,6.3,29.79,West,272,0.0,14.0,70,0.00,,,0.00,Wunderground v.1.13,2013-12-21 06:29:00,
2013-12-20 23:34:00,14.1,6.1,29.79,West,272,0.0,14.0,70,0.00,,,0.00,Wunderground v.1.13,2013-12-21 06:34:00,
2013-12-20 23:39:00,14.1,6.1,29.79,West,273,0.0,14.0,70,0.00,,,0.00,Wunderground v.1.13,2013-12-21 06:39:00,
2013-12-20 23:45:00,13.6,6.2,29.79,NW,325,0.0,14.0,72,0.00,,,0.00,Wunderground v.1.13,2013-12-21 06:45:00,
2013-12-20 23:50:00,14.0,6.9,29.78,NW,325,0.0,14.0,73,0.00,,,0.00,Wunderground v.1.13,2013-12-21 06:50:00,
2013-12-20 23:54:00,14.0,6.6,29.78,NW,325,0.0,14.0,72,0.00,,,0.00,Wunderground v.1.13,2013-12-21 06:54:00,